• In Hungary
  • List of Countries
  • For 7 days
  • Water Temperature
  • Satellite Maps
  • Weather Map
  • News
  • Weather Widgets
  • user-avatar
    Login

    Hourly Weather Hatvan

    Today, 19 August, Sunday

    Time Temperature Precipitation Wind Pressure Humidity
    00:00 +26°C° 0.1 mm 2 mps 753 mmHg 56%
    01:00 +25°C° 0.1 mm 2 mps 753 mmHg 59%
    02:00 +24°C° 0 mm 2 mps 754 mmHg 62%
    03:00 +24°C° 0 mm 2 mps 754 mmHg 66%
    04:00 +23°C° 0 mm 2 mps 754 mmHg 69%
    05:00 +24°C° 0.1 mm 2 mps 754 mmHg 66%
    06:00 +25°C° 0.1 mm 2 mps 754 mmHg 64%
    07:00 +26°C° 0.1 mm 2 mps 754 mmHg 61%
    08:00 +28°C° 0 mm 2 mps 754 mmHg 54%
    09:00 +30°C° 0 mm 2 mps 754 mmHg 48%
    10:00 +32°C° 0 mm 2 mps 754 mmHg 41%
    11:00 +32°C° 0 mm 2 mps 754 mmHg 38%
    12:00 +34°C° 0 mm 2 mps 754 mmHg 35%
    13:00 +35°C° 0 mm 2 mps 753 mmHg 31%
    14:00 +35°C° 0 mm 2 mps 753 mmHg 31%
    15:00 +35°C° 0 mm 2 mps 753 mmHg 32%
    16:00 +35°C° 0 mm 2 mps 753 mmHg 32%
    17:00 +32°C° 0 mm 2 mps 753 mmHg 35%
    18:00 +30°C° 0 mm 2 mps 753 mmHg 39%
    19:00 +29°C° 0 mm 2 mps 753 mmHg 43%
    20:00 +28°C° 0 mm 2 mps 753 mmHg 46%
    21:00 +27°C° 0 mm 2 mps 753 mmHg 49%
    22:00 +26°C° 0 mm 2 mps 753 mmHg 52%
    23:00 +25°C° 0 mm 2 mps 753 mmHg 56%

    Tomorrow, 20 August, Monday

    Time Temperature Precipitation Wind Pressure Humidity
    00:00 +25°C° 0 mm 2 mps 753 mmHg 60%
    01:00 +24°C° 0 mm 2 mps 753 mmHg 64%
    02:00 +23°C° 0 mm 2 mps 752 mmHg 66%
    03:00 +23°C° 0 mm 2 mps 752 mmHg 68%
    04:00 +23°C° 0 mm 2 mps 752 mmHg 71%
    05:00 +24°C° 0 mm 1 mps 752 mmHg 67%
    06:00 +25°C° 0 mm 1 mps 752 mmHg 63%
    07:00 +26°C° 0 mm 1 mps 752 mmHg 59%
    08:00 +28°C° 0 mm 1 mps 753 mmHg 52%
    09:00 +30°C° 0 mm 1 mps 753 mmHg 45%
    10:00 +32°C° 0 mm 1 mps 753 mmHg 38%
    11:00 +33°C° 0 mm 1 mps 752 mmHg 36%
    12:00 +35°C° 0 mm 2 mps 752 mmHg 33%
    13:00 +35°C° 0 mm 2 mps 751 mmHg 31%
    14:00 +35°C° 0 mm 2 mps 751 mmHg 32%
    15:00 +35°C° 0 mm 2 mps 751 mmHg 33%
    16:00 +35°C° 0 mm 2 mps 750 mmHg 34%
    17:00 +32°C° 0 mm 2 mps 750 mmHg 37%
    18:00 +31°C° 0 mm 1 mps 750 mmHg 40%
    19:00 +30°C° 0 mm 1 mps 750 mmHg 43%
    20:00 +29°C° 0 mm 1 mps 751 mmHg 46%
    21:00 +28°C° 0 mm 1 mps 751 mmHg 49%
    22:00 +27°C° 0 mm 1 mps 751 mmHg 51%
    23:00 +26°C° 0 mm 1 mps 751 mmHg 54%

    Day after tomorrow, 21 August, Tuesday

    Time Temperature Precipitation Wind Pressure Humidity
    00:00 +26°C° 0 mm 1 mps 751 mmHg 56%
    01:00 +25°C° 0 mm 1 mps 751 mmHg 59%
    02:00 +24°C° 0 mm 1 mps 751 mmHg 61%
    03:00 +24°C° 0 mm 1 mps 751 mmHg 63%
    04:00 +23°C° 0 mm 1 mps 751 mmHg 65%
    05:00 +24°C° 0 mm 2 mps 752 mmHg 62%
    06:00 +25°C° 0 mm 2 mps 752 mmHg 60%
    07:00 +26°C° 0 mm 2 mps 752 mmHg 57%
    08:00 +28°C° 0 mm 2 mps 752 mmHg 52%
    09:00 +30°C° 0 mm 2 mps 753 mmHg 47%
    10:00 +33°C° 0 mm 3 mps 753 mmHg 41%
    11:00 +32°C° 0 mm 2 mps 753 mmHg 40%
    12:00 +34°C° 0 mm 2 mps 752 mmHg 38%
    13:00 +34°C° 0 mm 2 mps 752 mmHg 37%
    14:00 +34°C° 0.1 mm 2 mps 752 mmHg 39%
    15:00 +33°C° 0.1 mm 3 mps 752 mmHg 41%
    16:00 +33°C° 0.1 mm 3 mps 752 mmHg 43%
    17:00 +30°C° 0 mm 3 mps 752 mmHg 48%
    18:00 +29°C° 0 mm 4 mps 752 mmHg 53%
    19:00 +27°C° 0 mm 4 mps 753 mmHg 58%
    20:00 +26°C° 0 mm 4 mps 753 mmHg 59%
    21:00 +25°C° 0 mm 4 mps 753 mmHg 59%
    22:00 +23°C° 0 mm 4 mps 754 mmHg 60%
    23:00 +22°C° 0 mm 4 mps 754 mmHg 58%

    22 August, Wednesday

    Time Temperature Precipitation Wind Pressure Humidity
    00:00 +22°C° 0 mm 3 mps 754 mmHg 56%
    01:00 +21°C° 0 mm 3 mps 754 mmHg 55%
    02:00 +21°C° 0 mm 3 mps 754 mmHg 54%
    03:00 +20°C° 0 mm 3 mps 754 mmHg 54%
    04:00 +20°C° 0 mm 3 mps 754 mmHg 54%
    05:00 +21°C° 0 mm 3 mps 754 mmHg 52%
    06:00 +21°C° 0 mm 3 mps 754 mmHg 50%
    07:00 +22°C° 0 mm 3 mps 755 mmHg 48%
    08:00 +25°C° 0 mm 3 mps 755 mmHg 44%
    09:00 +27°C° 0 mm 3 mps 755 mmHg 39%
    10:00 +28°C° 0 mm 3 mps 754 mmHg 34%
    11:00 +29°C° 0 mm 3 mps 754 mmHg 32%
    12:00 +30°C° 0 mm 3 mps 754 mmHg 30%
    13:00 +31°C° 0 mm 2 mps 753 mmHg 29%
    14:00 +32°C° 0 mm 2 mps 753 mmHg 28%
    15:00 +32°C° 0 mm 2 mps 753 mmHg 28%
    16:00 +32°C° 0 mm 2 mps 752 mmHg 27%
    17:00 +30°C° 0 mm 2 mps 752 mmHg 30%
    18:00 +28°C° 0 mm 2 mps 752 mmHg 34%
    19:00 +26°C° 0 mm 2 mps 752 mmHg 37%
    20:00 +25°C° 0 mm 2 mps 753 mmHg 39%
    21:00 +24°C° 0 mm 2 mps 753 mmHg 41%
    22:00 +23°C° 0 mm 2 mps 753 mmHg 43%
    23:00 +23°C° 0 mm 2 mps 753 mmHg 48%

    23 August, Thursday

    Time Temperature Precipitation Wind Pressure Humidity
    00:00 +21°C° 0 mm 2 mps 753 mmHg 52%
    01:00 +20°C° 0 mm 2 mps 753 mmHg 56%
    02:00 +20°C° 0 mm 2 mps 752 mmHg 60%
    03:00 +21°C° 0 mm 1 mps 752 mmHg 63%
    04:00 +20°C° 0 mm 1 mps 752 mmHg 67%
    05:00 +21°C° 0 mm 1 mps 752 mmHg 64%
    06:00 +22°C° 0 mm 1 mps 753 mmHg 62%
    07:00 +24°C° 0 mm 1 mps 753 mmHg 59%
    08:00 +26°C° 0 mm 1 mps 753 mmHg 52%
    09:00 +28°C° 0 mm 1 mps 752 mmHg 44%
    10:00 +31°C° 0 mm 1 mps 752 mmHg 37%
    11:00 +32°C° 0 mm 1 mps 752 mmHg 34%
    12:00 +33°C° 0 mm 1 mps 751 mmHg 31%
    13:00 +34°C° 0 mm 1 mps 751 mmHg 29%
    14:00 +34°C° 0 mm 1 mps 751 mmHg 28%
    15:00 +34°C° 0 mm 1 mps 750 mmHg 28%
    16:00 +34°C° 0 mm 1 mps 750 mmHg 27%
    17:00 +32°C° 0 mm 1 mps 750 mmHg 31%
    18:00 +30°C° 0 mm 1 mps 750 mmHg 34%
    19:00 +28°C° 0 mm 1 mps 750 mmHg 37%
    20:00 +27°C° 0 mm 1 mps 750 mmHg 39%
    21:00 +26°C° 0 mm 1 mps 750 mmHg 41%
    22:00 +26°C° 0 mm 1 mps 750 mmHg 42%
    23:00 +25°C° 0 mm 1 mps 750 mmHg 44%

    24 August, Friday

    Time Temperature Precipitation Wind Pressure Humidity
    00:00 +25°C° 0 mm 1 mps 750 mmHg 45%
    01:00 +24°C° 0 mm 1 mps 750 mmHg 46%
    02:00 +24°C° 0 mm 1 mps 750 mmHg 49%
    03:00 +23°C° 0 mm 1 mps 749 mmHg 51%
    04:00 +23°C° 0 mm 1 mps 749 mmHg 54%
    05:00 +24°C° 0 mm 1 mps 749 mmHg 53%
    06:00 +25°C° 0 mm 1 mps 749 mmHg 52%
    07:00 +26°C° 0 mm 1 mps 749 mmHg 51%
    08:00 +28°C° 0 mm 1 mps 749 mmHg 47%
    09:00 +30°C° 0 mm 2 mps 749 mmHg 43%
    10:00 +32°C° 0 mm 2 mps 749 mmHg 39%
    11:00 +32°C° 0 mm 2 mps 748 mmHg 36%
    12:00 +34°C° 0 mm 2 mps 748 mmHg 34%
    13:00 +35°C° 0 mm 2 mps 747 mmHg 32%
    14:00 +34°C° 0 mm 2 mps 747 mmHg 32%
    15:00 +34°C° 0 mm 2 mps 747 mmHg 33%
    16:00 +34°C° 0 mm 2 mps 746 mmHg 34%
    17:00 +31°C° 0 mm 2 mps 746 mmHg 36%
    18:00 +30°C° 0 mm 2 mps 746 mmHg 38%
    19:00 +29°C° 0 mm 2 mps 746 mmHg 40%
    20:00 +28°C° 0.1 mm 2 mps 746 mmHg 42%
    21:00 +28°C° 0.1 mm 2 mps 746 mmHg 44%
    22:00 +27°C° 0.1 mm 2 mps 746 mmHg 46%
    23:00 +26°C° 0.1 mm 2 mps 746 mmHg 49%
    Show more